Weather History for KHDE - January, 2013

Change the Weather History Date:

Tuesday, January 22, 2013

  Actual Average Record
Temperature  
Mean Temperature 20 °F -  
Max Temperature 28 °F 37 °F 69 °F (1950)
Min Temperature 11 °F 14 °F -14 °F (1966)
Degree Days  
Heating Degree Days 46    
Moisture  
Dew Point 13 °F    
Average Humidity 75    
Maximum Humidity 86    
Minimum Humidity 61    
Precipitation  
Precipitation 0.00 in - - ()
Sea Level Pressure  
Sea Level Pressure 30.17 in    
Wind  
Wind Speed 6 mph (SSE)    
Max Wind Speed 10 mph    
Max Gust Speed -    
Visibility 10 miles    
Events      
Averages and records for this station are not official NWS values.
T = Trace of Precipitation, MM = Missing Value Source: NWS Daily Summary

Daily Weather History Graph

Daily Weather History Graph

Search for Another Location

Airport or City:

Trip Planner

Search our weather history database for the weather conditions in past years. The results will help you decide how hot, cold, wet, or windy it might be!

Date:

Astronomy

Jan. 22, 2013 Rise Set
Actual Time 7:54 AM CST 5:43 PM CST
Civil Twilight 7:25 AM CST 6:13 PM CST
Nautical Twilight 6:51 AM CST 6:46 PM CST
Astronomical Twilight 6:19 AM CST 7:18 PM CST
Moon 2:07 PM CST (1/22) 4:17 AM CST (1/22)
Length of Visible Light 10h 48m
Length of Day
9h 49m
Waxing Gibbous, 83% of the Moon is Illuminated
Jan 22
Waxing Gibbous
Jan 26
Full
Feb 3
Last Quarter
Feb 10
New
Feb 17
First Quarter

Hourly Weather History & Observations

Time (CST) Temp. Windchill Dew Point Humidity Pressure Visibility Wind Dir Wind Speed Gust Speed Precip Events Conditions
12:15 AM 18.1 °F 8.9 °F 12.6 °F 79% 30.22 in 10.0 mi ESE 6.9 mph - N/A   Scattered Clouds
12:35 AM 17.6 °F 7.3 °F 12.6 °F 81% 30.21 in 10.0 mi ESE 8.1 mph - N/A   Scattered Clouds
12:55 AM 17.4 °F 6.2 °F 12.4 °F 81% 30.20 in 10.0 mi SE 9.2 mph - N/A   Clear
1:15 AM 16.9 °F 5.5 °F 12.0 °F 81% 30.20 in 10.0 mi SE 9.2 mph - N/A   Scattered Clouds
1:55 AM 16.3 °F 4.1 °F 11.5 °F 81% 30.20 in 10.0 mi SE 10.4 mph - N/A   Mostly Cloudy
2:15 AM 16.3 °F 4.9 °F 11.8 °F 82% 30.20 in 10.0 mi SE 9.2 mph - N/A   Scattered Clouds
2:35 AM 16.2 °F 5.5 °F 11.8 °F 83% 30.20 in 10.0 mi SE 8.1 mph - N/A   Clear
2:55 AM 15.6 °F 4.0 °F 10.8 °F 81% 30.19 in 10.0 mi SE 9.2 mph - N/A   Clear
3:15 AM 14.9 °F 6.1 °F 10.4 °F 82% 30.19 in 10.0 mi SE 5.8 mph - N/A   Clear
3:35 AM 14.9 °F 5.0 °F 10.4 °F 82% 30.18 in 10.0 mi SE 6.9 mph - N/A   Clear
3:55 AM 14.5 °F 5.7 °F 10.2 °F 83% 30.17 in 10.0 mi SE 5.8 mph - N/A   Clear
4:15 AM 14.0 °F 6.5 °F 9.5 °F 82% 30.17 in 10.0 mi SE 4.6 mph - N/A   Clear
4:35 AM 13.6 °F 6.0 °F 9.3 °F 83% 30.17 in 10.0 mi SE 4.6 mph - N/A   Clear
4:55 AM 14.0 °F 8.2 °F 10.0 °F 84% 30.16 in 10.0 mi SSE 3.5 mph - N/A   Scattered Clouds
5:15 AM 14.5 °F 7.1 °F 10.4 °F 84% 30.15 in 10.0 mi SE 4.6 mph - N/A   Mostly Cloudy
5:35 AM 14.5 °F 4.6 °F 9.9 °F 82% 30.16 in 10.0 mi SE 6.9 mph - N/A   Mostly Cloudy
5:55 AM 14.0 °F 6.5 °F 9.5 °F 82% 30.16 in 10.0 mi SSE 4.6 mph - N/A   Scattered Clouds
6:15 AM 13.1 °F - 8.6 °F 82% 30.18 in 10.0 mi Calm Calm - N/A   Clear
6:35 AM 12.9 °F 6.9 °F 8.6 °F 83% 30.18 in 10.0 mi SSE 3.5 mph - N/A   Clear
6:55 AM 12.2 °F 4.3 °F 8.1 °F 83% 30.18 in 10.0 mi SE 4.6 mph - N/A   Clear
7:15 AM 12.0 °F 4.1 °F 8.2 °F 85% 30.19 in 10.0 mi SE 4.6 mph - N/A   Clear
7:35 AM 11.8 °F 5.7 °F 8.1 °F 85% 30.18 in 10.0 mi SE 3.5 mph - N/A   Clear
7:55 AM 12.6 °F 4.8 °F 9.0 °F 85% 30.17 in 10.0 mi South 4.6 mph - N/A   Clear
8:15 AM 12.0 °F 5.9 °F 8.2 °F 85% 30.18 in 10.0 mi SE 3.5 mph - N/A   Clear
8:35 AM 13.1 °F - 9.5 °F 86% 30.19 in 10.0 mi Calm Calm - N/A   Clear
8:55 AM 14.4 °F 6.9 °F 10.2 °F 84% 30.19 in 10.0 mi SSE 4.6 mph - N/A   Clear
9:35 AM 15.8 °F 4.2 °F 10.0 °F 78% 30.21 in 10.0 mi SSE 9.2 mph - N/A   Clear
9:55 AM 16.7 °F 5.3 °F 10.2 °F 76% 30.20 in 10.0 mi SSE 9.2 mph - N/A   Clear
10:15 AM 17.6 °F 5.7 °F 10.4 °F 73% 30.22 in 10.0 mi SSE 10.4 mph - N/A   Clear
10:35 AM 18.3 °F 8.2 °F 10.4 °F 71% 30.22 in 10.0 mi South 8.1 mph - N/A   Clear
10:55 AM 19.4 °F 9.5 °F 10.9 °F 70% 30.22 in 10.0 mi SSE 8.1 mph - N/A   Clear
11:15 AM 19.9 °F 13.4 °F 11.5 °F 70% 30.22 in 10.0 mi South 4.6 mph - N/A   Scattered Clouds
11:35 AM 19.9 °F - 11.3 °F 69% 30.22 in 10.0 mi Calm Calm - N/A   Clear
11:55 AM 20.8 °F 14.4 °F 12.2 °F 69% 30.20 in 10.0 mi SE 4.6 mph - N/A   Clear
12:15 PM 21.9 °F 14.5 °F 12.7 °F 68% 30.18 in 10.0 mi South 5.8 mph - N/A   Clear
12:35 PM 22.5 °F 15.1 °F 12.9 °F 67% 30.17 in 10.0 mi South 5.8 mph - N/A   Clear
12:55 PM 23.0 °F 17.0 °F 13.6 °F 67% 30.16 in 10.0 mi SW 4.6 mph - N/A   Clear
1:15 PM 23.7 °F 16.6 °F 14.0 °F 66% 30.16 in 10.0 mi South 5.8 mph - N/A   Clear
1:35 PM 24.6 °F 18.8 °F 14.5 °F 66% 30.15 in 10.0 mi South 4.6 mph - N/A   Clear
1:55 PM 25.3 °F - 14.9 °F 65% 30.14 in 10.0 mi Calm Calm - N/A   Clear
2:15 PM 26.2 °F 18.6 °F 15.1 °F 63% 30.14 in 10.0 mi South 6.9 mph - N/A   Clear
2:35 PM 26.8 °F 20.2 °F 15.4 °F 62% 30.13 in 10.0 mi South 5.8 mph - N/A   Clear
2:55 PM 26.8 °F 20.2 °F 15.4 °F 62% 30.15 in 10.0 mi South 5.8 mph - N/A   Clear
3:15 PM 27.7 °F 23.8 °F 16.0 °F 62% 30.14 in 10.0 mi SSW 3.5 mph - N/A   Clear
3:35 PM 28.0 °F 21.7 °F 16.0 °F 61% 30.13 in 10.0 mi South 5.8 mph - N/A   Clear
3:55 PM 28.4 °F 21.2 °F 16.5 °F 61% 30.13 in 10.0 mi SSW 6.9 mph - N/A   Clear
4:15 PM 28.2 °F 22.0 °F 16.5 °F 62% 30.13 in 10.0 mi South 5.8 mph - N/A   Clear
4:35 PM 28.4 °F 22.2 °F 16.7 °F 62% 30.13 in 10.0 mi SSW 5.8 mph - N/A   Clear
4:55 PM 28.2 °F 22.0 °F 16.7 °F 62% 30.13 in 10.0 mi South 5.8 mph - N/A   Clear
5:15 PM 27.9 °F 20.6 °F 17.1 °F 64% 30.13 in 10.0 mi South 6.9 mph - N/A   Clear
5:35 PM 27.5 °F 22.2 °F 17.2 °F 65% 30.13 in 10.0 mi South 4.6 mph - N/A   Clear
5:55 PM 25.9 °F 20.3 °F 16.7 °F 68% 30.13 in 10.0 mi SSE 4.6 mph - N/A   Clear
6:15 PM 25.2 °F 19.5 °F 17.4 °F 72% 30.14 in 10.0 mi SSE 4.6 mph - N/A   Clear
6:35 PM 23.5 °F 19.1 °F 16.9 °F 76% 30.15 in 10.0 mi SSE 3.5 mph - N/A   Clear
6:55 PM 21.6 °F 14.0 °F 16.7 °F 82% 30.15 in 10.0 mi SE 5.8 mph - N/A   Clear
7:15 PM 22.5 °F 15.1 °F 17.1 °F 80% 30.15 in 10.0 mi SSE 5.8 mph - N/A   Clear
7:35 PM 23.0 °F 14.7 °F 17.4 °F 79% 30.15 in 10.0 mi South 6.9 mph - N/A   Clear
7:55 PM 23.5 °F 17.6 °F 16.9 °F 76% 30.15 in 10.0 mi South 4.6 mph - N/A   Clear
8:15 PM 23.5 °F 14.5 °F 16.7 °F 75% 30.14 in 10.0 mi South 8.1 mph - N/A   Clear
8:35 PM 23.4 °F 17.4 °F 16.3 °F 75% 30.16 in 10.0 mi South 4.6 mph - N/A   Clear
8:55 PM 22.6 °F 14.3 °F 15.8 °F 75% 30.15 in 10.0 mi South 6.9 mph - N/A   Clear
9:15 PM 22.5 °F 14.1 °F 15.8 °F 76% 30.15 in 10.0 mi South 6.9 mph - N/A   Clear
9:35 PM 21.6 °F 13.0 °F 15.6 °F 78% 30.14 in 10.0 mi South 6.9 mph - N/A   Clear
9:55 PM 22.3 °F 13.9 °F 15.6 °F 76% 30.16 in 10.0 mi SSW 6.9 mph - N/A   Clear
10:15 PM 22.6 °F 13.4 °F 15.8 °F 75% 30.15 in 10.0 mi South 8.1 mph - N/A   Clear
10:35 PM 22.5 °F 13.2 °F 15.4 °F 74% 30.15 in 10.0 mi South 8.1 mph - N/A   Clear
10:55 PM 22.1 °F 11.3 °F 15.3 °F 75% 30.15 in 10.0 mi South 10.4 mph - N/A   Clear
11:15 PM 21.7 °F 11.5 °F 14.9 °F 75% 30.14 in 10.0 mi South 9.2 mph - N/A   Clear
11:35 PM 22.1 °F 12.0 °F 14.9 °F 74% 30.15 in 10.0 mi SSW 9.2 mph - N/A   Clear
11:55 PM 22.3 °F 12.2 °F 15.3 °F 74% 30.15 in 10.0 mi South 9.2 mph - N/A   Clear